Content
SEND FEEDBACK

Daily
Averages
Monthly
Summary
United Kingdom

LONDON, ENGLAND


Home > Europe > United Kingdom > England
Elevation: 203 feet     Latitude: 51 09N     Longitude: 000 11W

WEATHER
 
SELECT A DAY
Number of Records: 296,330;   Date Range: 7/1/96 - 10/1/14
 
SHARE

PRINT THIS DATA

[ ← Previous Day ]
WEATHER ALMANAC - MARCH 26, 2013
[ Next Day → ]
[ °C ]   °F
Weather ElementAverageHighLow
Temperature33.7 °F33.8 °F (12:50 am)32 °F (8:20 am)
Dewpoint23.8 °F26.6 °F (8:50 am)23 °F (12:50 am)
Humidity67.5 %75 % (8:20 am)65 % (12:50 am)
Barometer29.90 in29.92 in (7:50 am)29.86 in (10:50 pm)
Wind Speed11.5 mph17.3 mph (11:50 am)
Weather ElementAverage
Visibility6.1 mi
Wind DirectionNE (39.8 °)

Weather ElementTotal
Precipitation---
Heating Degree Days32.1 (Base 65)
Averaged from 47 records on March 26, 2013
WEATHER CONDITIONS BREAKOUT
WIND DIRECTION BREAKOUT
WEATHER BY HOUR - MARCH 26, 2013
[ °C ]   °F
Local TimeTemperatureDewpointHumidityBarometerVisibilityWind DirectionWind SpeedGust SpeedPrecipitationEventsConditions
12:50 AM33.8 °F23.0 °F65 %29.89 in6.2 miNNE (20°)10.4 mphMostly Cloudy
1:20 AM33.8 °F23.0 °F65 %29.89 in6.2 miNNE (30°)8.1 mphMostly Cloudy
1:50 AM33.8 °F23.0 °F65 %29.89 in6.2 miNNE (30°)8.1 mphMostly Cloudy
2:20 AM33.8 °F23.0 °F65 %29.89 in6.2 miNNE (30°)8.1 mphMostly Cloudy
2:50 AM33.8 °F23.0 °F65 %29.89 in6.2 miNNE (30°)9.2 mphMostly Cloudy
3:20 AM33.8 °F23.0 °F65 %29.89 in6.2 miNNE (30°)9.2 mphScattered Clouds
3:50 AM33.8 °F23.0 °F65 %29.89 in6.2 miNNE (30°)10.4 mphMostly Cloudy
4:20 AM33.8 °F23.0 °F65 %29.89 in6.2 miNNE (30°)11.5 mphMostly Cloudy
4:50 AM33.8 °F23.0 °F65 %29.89 in6.2 miNNE (30°)10.4 mphMostly Cloudy
5:20 AM33.8 °F24.8 °F70 %29.89 in6.2 miNE (40°)12.7 mphOvercast
5:50 AM33.8 °F24.8 °F70 %29.89 in6.2 miNE (40°)11.5 mphMostly Cloudy
6:20 AM33.8 °F24.8 °F70 %29.89 in6.2 miNE (40°)11.5 mphMostly Cloudy
6:50 AM33.8 °F24.8 °F70 %29.89 in6.2 miNE (40°)11.5 mphMostly Cloudy
7:20 AM33.8 °F24.8 °F70 %29.89 in6.2 miNE (40°)12.7 mphMostly Cloudy
7:50 AM33.8 °F24.8 °F70 %29.92 in6.2 miNE (40°)13.8 mphMostly Cloudy
8:20 AM32.0 °F24.8 °F75 %29.92 in4.3 miNE (40°)13.8 mphSnowLight Snow
8:50 AM33.8 °F26.6 °F75 %29.92 in5.6 miNE (40°)16.1 mphMostly Cloudy
9:20 AM33.8 °F26.6 °F75 %29.92 in6.2 miNE (50°)13.8 mphMostly Cloudy
9:50 AM33.8 °F26.6 °F75 %29.92 in6.2 miNE (50°)15.0 mphMostly Cloudy
10:20 AM33.8 °F26.6 °F75 %29.92 in6.2 miNE (50°)13.8 mphMostly Cloudy
10:50 AM33.8 °F24.8 °F70 %29.92 in6.2 miNE (50°)15.0 mphMostly Cloudy
11:20 AM33.8 °F24.8 °F70 %29.92 in6.2 miNE (50°)13.8 mphMostly Cloudy
11:50 AM33.8 °F23.0 °F65 %29.92 in6.2 miENE (60°)17.3 mphMostly Cloudy
12:20 PM33.8 °F23.0 °F65 %29.92 in6.2 miENE (60°)13.8 mphMostly Cloudy
12:50 PM33.8 °F23.0 °F65 %29.92 in6.2 miNE (40°)15.0 mphMostly Cloudy
1:20 PM33.8 °F23.0 °F65 %29.89 in6.2 miNE (50°)15.0 mphMostly Cloudy
1:50 PM33.8 °F23.0 °F65 %29.89 in6.2 miNE (50°)13.8 mphMostly Cloudy
2:20 PM33.8 °F23.0 °F65 %29.89 in6.2 miNE (40°)16.1 mphMostly Cloudy
2:50 PM33.8 °F23.0 °F65 %29.89 in6.2 miNE (50°)16.1 mphMostly Cloudy
3:20 PM33.8 °F23.0 °F65 %29.89 in6.2 miNE (50°)16.1 mphMostly Cloudy
3:50 PM33.8 °F23.0 °F65 %29.89 in6.2 miNE (50°)13.8 mphMostly Cloudy
4:20 PM33.8 °F23.0 °F65 %29.89 in6.2 miNE (40°)16.1 mphMostly Cloudy
4:50 PM33.8 °F23.0 °F65 %29.89 in6.2 miNE (50°)12.7 mphMostly Cloudy
5:20 PM33.8 °F23.0 °F65 %29.89 in6.2 miNE (50°)10.4 mphMostly Cloudy
5:50 PM33.8 °F23.0 °F65 %29.89 in6.2 miNE (50°)11.5 mphMostly Cloudy
6:20 PM33.8 °F23.0 °F65 %29.89 in6.2 miNE (50°)10.4 mphMostly Cloudy
6:50 PM33.8 °F23.0 °F65 %29.89 in6.2 miNE (40°)8.1 mphScattered Clouds
7:20 PM32.0 °F23.0 °F69 %29.89 in6.2 miNNE (30°)6.9 mphMostly Cloudy
7:50 PM33.8 °F23.0 °F65 %29.89 in6.2 miNNE (30°)5.8 mphOvercast
8:20 PM33.8 °F23.0 °F65 %29.89 in6.2 miNNE (30°)8.1 mphMostly Cloudy
8:50 PM33.8 °F23.0 °F65 %29.89 in6.2 miNE (40°)6.9 mphMostly Cloudy
9:20 PM33.8 °F23.0 °F65 %29.89 in6.2 miNNE (30°)6.9 mphMostly Cloudy
9:50 PM33.8 °F24.8 °F70 %29.89 in6.2 miNE (40°)9.2 mphMostly Cloudy
10:20 PM33.8 °F24.8 °F70 %29.89 in6.2 miNNE (30°)6.9 mphMostly Cloudy
10:50 PM33.8 °F24.8 °F70 %29.86 in6.2 miNNE (20°)6.9 mphMostly Cloudy
11:20 PM33.8 °F24.8 °F70 %29.86 in6.2 miNNE (30°)8.1 mphMostly Cloudy
11:50 PM33.8 °F24.8 °F70 %29.86 in6.2 miNNE (30°)6.9 mphMostly Cloudy
Hourly data recorded from EGKK, located miles away from London, England







STORIES FROM OUR PARTNERS